Fort Riley, KS

12:11 PM CST on February 07, 2016 (GMT -0600)
Marshall Army Air Field

Weather History for KFRI - December, 2012

Change the Weather History Date:

Thursday, December 13, 2012

  Actual Average (KMHK) Record (KMHK)
Temperature  
Mean Temperature 44 °F 31 °F  
Max Temperature 56 °F 42 °F 61 °F (2006)
Min Temperature 31 °F 20 °F 7 °F (2000)
Degree Days  
Heating Degree Days 22 34  
Month to date heating degree days 418  
Since 1 July heating degree days 1493  
Cooling Degree Days 0 0  
Month to date cooling degree days 0  
Year to date cooling degree days 1362  
Moisture  
Dew Point 20 °F    
Average Humidity 43    
Maximum Humidity 70    
Minimum Humidity 26    
Precipitation  
Precipitation 0.00 in 0.03 in 2.16 in (2015)
Month to date precipitation 0.50  
Year to date precipitation 32.03  
Sea Level Pressure  
Sea Level Pressure 30.07 in    
Wind  
Wind Speed 11 mph (South)    
Max Wind Speed 17 mph    
Max Gust Speed 24 mph    
Visibility 10 miles    
Events      
T = Trace of Precipitation, MM = Missing Value Source: NWS Daily Summary

Daily Weather History Graph

Daily Weather History Graph

Search for Another Location

Airport or City:

Trip Planner

Search our weather history database for the weather conditions in past years. The results will help you decide how hot, cold, wet, or windy it might be!

Date:

Astronomy

Dec. 13, 2012 Rise Set
Actual Time 7:37 AM CST 5:05 PM CST
Civil Twilight 7:07 AM CST 5:35 PM CST
Nautical Twilight 6:34 AM CST 6:08 PM CST
Astronomical Twilight 6:01 AM CST 6:41 PM CST
Moon 7:47 AM CST (12/13) 5:48 PM CST (12/13)
Length of Visible Light 10h 27m
Length of Day
9h 27m
New Moon, 0% of the Moon is Illuminated
Dec 13
New Moon
Dec 19
First Quarter
Dec 28
Full
Jan 4
Last Quarter
Jan 11
New

Hourly Weather History & Observations

Time (CST) Temp. Windchill Dew Point Humidity Pressure Visibility Wind Dir Wind Speed Gust Speed Precip Events Conditions
12:55 AM 41.7 °F 33.4 °F 15.4 °F 35% 30.05 in 10.0 mi South 17.3 mph 24.2 mph N/A   Clear
1:55 AM 41.2 °F 33.7 °F 15.6 °F 36% 30.04 in 10.0 mi South 13.8 mph 21.9 mph N/A   Clear
2:55 AM 39.7 °F 32.3 °F 15.6 °F 38% 30.05 in 10.0 mi South 12.7 mph - N/A   Clear
3:55 AM 39.2 °F 32.0 °F 16.3 °F 40% 30.04 in 10.0 mi South 11.5 mph - N/A   Clear
4:55 AM 39.0 °F 31.4 °F 17.1 °F 41% 30.04 in 10.0 mi South 12.7 mph - N/A   Clear
5:55 AM 37.9 °F 30.5 °F 18.0 °F 45% 30.07 in 10.0 mi SSW 11.5 mph - N/A   Clear
6:55 AM 35.4 °F 30.5 °F 18.1 °F 49% 30.08 in 10.0 mi South 5.8 mph - N/A   Clear
7:55 AM 34.7 °F 30.6 °F 18.9 °F 52% 30.09 in 10.0 mi SW 4.6 mph - N/A   Clear
8:55 AM 39.6 °F 34.7 °F 20.5 °F 46% 30.11 in 10.0 mi South 6.9 mph - N/A   Clear
9:55 AM 44.4 °F 38.2 °F 21.6 °F 40% 30.12 in 10.0 mi SSW 12.7 mph - N/A   Clear
10:55 AM 48.2 °F - 22.1 °F 36% 30.11 in 10.0 mi SSW 11.5 mph - N/A   Clear
11:55 AM 51.4 °F - 21.9 °F 32% 30.09 in 10.0 mi SSW 10.4 mph - N/A   Clear
12:55 PM 54.3 °F - 21.6 °F 28% 30.06 in 10.0 mi South 6.9 mph - N/A   Clear
1:55 PM 56.3 °F - 21.7 °F 26% 30.05 in 10.0 mi South 11.5 mph - N/A   Clear
2:55 PM 56.8 °F - 22.6 °F 27% 30.04 in 10.0 mi SSE 10.4 mph - N/A   Clear
3:55 PM 56.3 °F - 22.3 °F 27% 30.04 in 10.0 mi South 9.2 mph - N/A   Clear
4:55 PM 52.5 °F - 22.6 °F 31% 30.04 in 10.0 mi South 4.6 mph - N/A   Clear
5:55 PM 47.7 °F - 22.6 °F 37% 30.06 in 10.0 mi South 3.5 mph - N/A   Clear
7:55 PM 33.6 °F - 22.1 °F 63% 30.08 in 10.0 mi Calm Calm - N/A   Clear
8:55 PM 31.3 °F 27.9 °F 22.3 °F 69% 30.08 in 10.0 mi Variable 3.5 mph - N/A   Clear
9:55 PM 32.7 °F - 23.9 °F 70% 30.07 in 10.0 mi Calm Calm - N/A   Clear
10:55 PM 37.2 °F 33.6 °F 23.2 °F 57% 30.06 in 10.0 mi Variable 4.6 mph - N/A   Clear
11:55 PM 32.0 °F 28.7 °F 22.8 °F 69% 30.06 in 10.0 mi North 3.5 mph - N/A   Clear